FW1478 Weather Reports


Display with metric or nautical units.
time (UTC)temp
F
wind
direction
speed
MPH
gust
MPH
rain 1hr
in
rain 24hr
in
rain mn
in
humidity
%
barometer
mb
20190326034522 24 204 0.0 0.0 0.00 0.00 0.00 41 1019.3
20190326033039 25 349 0.0 0.0 0.00 0.00 0.00 35 1019.3
20190326031504 26 351 0.0 2.0 0.00 0.00 0.00 40 1019.3
20190326030144 25 323 0.0 4.0 0.00 0.00 0.00 41 1019.1
20190326024641 22 285 0.0 1.0 0.00 0.00 0.00 51 1019.3
20190326023149 22 323 0.0 0.0 0.00 0.00 0.00 53 1019.2
20190326020105 23 323 0.0 0.0 0.00 0.00 0.00 60 1018.8
20190326014637 23 323 0.0 0.0 0.00 0.00 0.00 52 1018.7
20190326013100 23 323 0.0 0.0 0.00 0.00 0.00 50 1018.5
20190326011542 24 323 0.0 0.0 0.00 0.00 0.00 52 1018.3
20190326010051 25 323 0.0 0.0 0.00 0.00 0.00 51 1018.1
20190326004601 25 323 0.0 0.0 0.00 0.00 0.00 53 1017.9
20190326003106 26 303 0.0 0.0 0.00 0.00 0.00 57 1017.8
20190326001537 26 302 0.0 0.0 0.00 0.00 0.00 50 1017.6
20190326000114 27 303 0.0 0.0 0.00 0.00 0.00 30 1017.4
20190325234506 28 303 0.0 0.0 0.00 0.00 0.00 34 1017.0
20190325233140 30 303 0.0 0.0 0.00 0.00 0.00 28 1016.9
20190325231617 31 303 0.0 0.0 0.00 0.00 0.00 27 1016.5
20190325230127 32 321 0.0 2.0 0.00 0.00 0.00 31 1016.2
20190325224638 33 20 0.0 1.0 0.00 0.00 0.00 28 1016.1
20190325223154 34 335 0.0 3.0 0.00 0.00 0.00 27 1016.0
20190325221613 34 333 0.0 5.0 0.00 0.00 0.00 25 1015.7
20190325220109 35 359 0.0 3.0 0.00 0.00 0.00 28 1015.5
20190325214536 35 330 1.0 6.0 0.00 0.00 0.00 22 1015.4
20190325213029 36 340 0.0 7.0 0.00 0.00 0.00 25 1015.2
20190325211529 36 276 0.0 6.0 0.00 0.00 0.00 29 1015.2
20190325210101 36 326 3.0 7.0 0.00 0.00 0.00 29 1015.4
20190325204546 37 338 2.0 6.0 0.00 0.00 0.00 25 1015.3
20190325203042 38 312 0.0 5.0 0.00 0.00 0.00 28 1015.5
20190325201552 39 14 3.0 5.0 0.00 0.00 0.00 23 1015.5
20190325200033 39 268 0.0 5.0 0.00 0.00 0.00 24 1015.6
20190325194545 39 357 1.0 7.0 0.00 0.00 0.00 25 1015.7
20190325193033 40 223 0.0 4.0 0.00 0.00 0.00 26 1015.7
20190325191537 40 354 2.0 6.0 0.00 0.00 0.00 24 1015.8
20190325190043 39 343 0.0 5.0 0.00 0.00 0.00 24 1015.9
20190325184605 39 229 0.0 5.0 0.00 0.00 0.00 33 1016.0
20190325183021 37 351 2.0 7.0 0.00 0.00 0.00 30 1016.3
20190325180015 37 330 3.0 9.0 0.00 0.00 0.00 28 1016.4
20190325174515 37 289 1.0 9.0 0.00 0.00 0.00 34 1016.6
20190325173028 37 18 0.0 8.0 0.00 0.00 0.00 32 1016.6
20190325171538 36 336 0.0 10.0 0.00 0.00 0.00 30 1016.7
20190325170027 36 312 1.0 6.0 0.00 0.00 0.00 27 1016.8
20190325164539 36 85 0.0 6.0 0.00 0.00 0.00 27 1016.9
20190325163021 36 15 3.0 8.0 0.00 0.00 0.00 29 1017.0
20190325161505 35 15 5.0 11.0 0.00 0.00 0.00 27 1016.9
20190325160005 35 356 4.0 8.0 0.00 0.00 0.00 32 1016.9
20190325154504 35 328 1.0 8.0 0.00 0.00 0.00 32 1017.0
20190325153004 34 340 4.0 11.0 0.00 0.00 0.00 29 1017.1
20190325151509 34 359 1.0 6.0 0.00 0.00 0.00 29 1017.2
20190325150001 33 51 2.0 8.0 0.00 0.00 0.00 32 1017.2
20190325144501 33 13 2.0 6.0 0.00 0.00 0.00 30 1017.2
20190325143159 33 30 0.0 9.0 0.00 0.00 0.00 33 1017.5
20190325141655 32 19 1.0 9.0 0.00 0.00 0.00 34 1017.5
20190325140221 32 124 0.0 6.0 0.00 0.00 0.00 35 1017.6
20190325134646 31 16 2.0 8.0 0.00 0.00 0.00 35 1017.7
20190325133201 30 23 3.0 8.0 0.00 0.00 0.00 36 1017.6
20190325131700 30 15 2.0 7.0 0.00 0.00 0.00 36 1017.6
20190325130141 30 17 1.0 6.0 0.00 0.00 0.00 33 1017.7
20190325124657 29 359 1.0 5.0 0.00 0.00 0.00 38 1017.6
20190325123214 29 350 2.0 6.0 0.00 0.00 0.00 37 1017.5
20190325121650 28 24 1.0 6.0 0.00 0.00 0.00 41 1017.4
20190325120056 28 13 1.0 4.0 0.00 0.00 0.00 46 1017.4
20190325114634 28 63 0.0 4.0 0.00 0.00 0.00 48 1017.3
20190325113135 28 231 0.0 5.0 0.00 0.00 0.00 46 1016.9
20190325111652 28 12 0.0 7.0 0.00 0.00 0.00 54 1016.5
20190325110053 28 226 0.0 2.0 0.00 0.00 0.00 58 1016.3
20190325104603 28 236 0.0 4.0 0.00 0.00 0.00 60 1016.1
20190325103100 28 332 0.0 1.0 0.00 0.00 0.00 63 1015.8
20190325101604 29 12 0.0 4.0 0.00 0.00 0.00 63 1015.5
20190325100104 29 55 0.0 4.0 0.00 0.00 0.00 63 1015.1
20190325094618 30 359 1.0 3.0 0.00 0.00 0.00 62 1014.9
20190325093039 31 13 1.0 4.0 0.00 0.00 0.00 61 1014.8
20190325091529 31 18 2.0 6.0 0.00 0.00 0.00 58 1014.6
20190325090027 32 6 2.0 5.0 0.00 0.00 0.00 60 1014.5
20190325084520 32 359 1.0 4.0 0.00 0.00 0.00 58 1014.3
20190325083025 33 10 2.0 7.0 0.00 0.00 0.00 61 1014.1
20190325081509 34 349 2.0 7.0 0.00 0.00 0.00 66 1013.8
20190325080008 35 17 2.0 6.0 0.00 0.00 0.00 69 1013.7
20190325074510 35 340 2.0 6.0 0.00 0.00 0.00 70 1013.5
20190325073144 36 333 0.0 6.0 0.00 0.00 0.00 72 1013.3
20190325071741 36 5 0.0 4.0 0.00 0.00 0.00 71 1013.1
20190325070200 36 42 1.0 3.0 0.00 0.00 0.00 71 1013.0
20190325064709 36 332 0.0 4.0 0.00 0.00 0.00 71 1012.9
20190325063144 35 219 0.0 3.0 0.00 0.00 0.00 72 1012.7
20190325061621 34 240 0.0 0.0 0.00 0.00 0.00 75 1012.7
20190325060140 34 153 0.0 0.0 0.00 0.00 0.00 75 1012.6
20190325054612 33 139 0.0 1.0 0.00 0.00 0.00 78 1012.6
20190325053211 33 15 0.0 0.0 0.00 0.00 0.00 77 1012.7
20190325051548 33 13 0.0 0.0 0.00 0.00 0.00 75 1012.6
20190325050106 33 13 0.0 0.0 0.00 0.00 0.00 76 1012.5
20190325044623 33 13 0.0 0.0 0.00 0.00 0.00 75 1012.5
20190325043128 32 13 0.0 0.0 0.00 0.00 0.00 75 1012.4
20190325041602 32 13 0.0 0.0 0.00 0.00 0.00 75 1012.2
20190325040041 32 13 0.0 0.0 0.00 0.00 0.00 76 1012.0